Weather History for Baker, OR

Change the Weather History Date:

Friday, November 11, 2011

  Actual Average Record
Temperature  
Mean Temperature 33 °F 35 °F  
Max Temperature 48 °F 46 °F 62 °F (1973)
Min Temperature 18 °F 24 °F 8 °F (2012)
Degree Days  
Heating Degree Days 32 30  
Month to date heating degree days 381 310  
Since 1 July heating degree days 1266 1389  
Cooling Degree Days 0 0  
Month to date cooling degree days 0 0  
Year to date cooling degree days 83 169  
Moisture  
Dew Point 23 °F    
Average Humidity 64    
Maximum Humidity 88    
Minimum Humidity 39    
Precipitation  
Precipitation T in 0.03 in 0.32 in (1968)
Month to date precipitation 0.33 0.32  
Year to date precipitation 10.32 8.57  
Sea Level Pressure  
Sea Level Pressure 29.77 in    
Wind  
Wind Speed 11 mph (ESE)    
Max Wind Speed 30 mph    
Max Gust Speed 37 mph    
Visibility 8 miles    
Events Snow    
T = Trace of Precipitation, MM = Missing Value Source: NWS Daily Summary

Daily Weather History Graph

Daily Weather History Graph

Search for Another Location

Airport:

Trip Planner

Search our weather history database for the weather conditions in past years. The results will help you decide how hot, cold, wet, or windy it might be!

Date:

Astronomy

Nov. 11, 2011 Rise Set
Actual Time 6:42 AM PST 4:27 PM PST
Civil Twilight 6:11 AM PST 4:58 PM PST
Nautical Twilight 5:36 AM PST 5:33 PM PST
Astronomical Twilight 5:01 AM PST 6:08 PM PST
Moon 4:55 PM PST (11/11) 7:39 AM PST (11/11)
Length of Visible Light 10h 47m
Length of Day
9h 44m
Full, 99% of the Moon is Illuminated
Nov 11
Full
Nov 18
Last Quarter
Nov 24
New
Dec 2
First Quarter
Dec 10
Full

Hourly Weather History & Observations

Time (PST) Temp. Windchill Dew Point Humidity Pressure Visibility Wind Dir Wind Speed Gust Speed Precip Events Conditions
12:53 AM 21.2 °F - 17.6 °F 86% 30.05 in 10.0 mi Calm Calm - N/A   Clear
1:53 AM 19.0 °F - 16.0 °F 88% 30.11 in 9.0 mi Calm Calm - N/A   Clear
2:53 AM 21.9 °F 17.2 °F 18.0 °F 85% 30.07 in 10.0 mi SSE 3.5 mph - N/A   Clear
3:53 AM 21.0 °F 14.6 °F 18.0 °F 88% 30.05 in 10.0 mi South 4.6 mph - N/A   Clear
4:53 AM 21.0 °F 14.6 °F 17.1 °F 85% 30.05 in 10.0 mi SW 4.6 mph - N/A   Clear
5:53 AM 21.2 °F 13.6 °F 17.6 °F 86% 29.95 in 10.0 mi South 5.8 mph - N/A   Clear
6:53 AM 19.0 °F 13.9 °F 15.1 °F 85% 30.03 in 10.0 mi NNW 3.5 mph - N/A   Clear
7:53 AM 26.1 °F 21.9 °F 21.9 °F 84% 29.99 in 10.0 mi South 3.5 mph - N/A   Clear
8:53 AM 35.1 °F 29.3 °F 28.0 °F 76% 29.96 in 10.0 mi Variable 6.9 mph - N/A   Clear
9:53 AM 42.1 °F 33.1 °F 25.0 °F 51% 29.91 in 10.0 mi East 20.7 mph 25.3 mph N/A   Clear
10:53 AM 45.0 °F 37.4 °F 25.0 °F 46% 29.88 in 10.0 mi East 18.4 mph 23.0 mph N/A   Clear
11:53 AM 46.0 °F 38.8 °F 24.1 °F 42% 29.83 in 10.0 mi ENE 18.4 mph - N/A   Clear
12:53 PM 48.0 °F - 24.1 °F 39% 29.77 in 10.0 mi ESE 18.4 mph 24.2 mph N/A   Clear
1:53 PM 48.0 °F - 24.1 °F 39% 29.75 in 10.0 mi ESE 16.1 mph 23.0 mph N/A   Clear
2:53 PM 45.0 °F 37.9 °F 23.0 °F 42% 29.71 in 10.0 mi ESE 16.1 mph 24.2 mph N/A   Clear
3:53 PM 45.0 °F 37.4 °F 21.9 °F 40% 29.66 in 10.0 mi SSE 18.4 mph 27.6 mph N/A   Clear
4:53 PM 43.0 °F 35.4 °F 21.9 °F 43% 29.64 in 10.0 mi SSE 16.1 mph 20.7 mph N/A   Clear
5:53 PM 41.0 °F 32.5 °F 21.9 °F 47% 29.62 in 10.0 mi SSE 17.3 mph - N/A   Clear
6:53 PM 39.9 °F 32.1 °F 23.0 °F 51% 29.58 in 10.0 mi SE 13.8 mph - N/A   Clear
7:53 PM 41.0 °F 32.8 °F 23.0 °F 49% 29.54 in 10.0 mi SE 16.1 mph - N/A   Overcast
8:53 PM 42.1 °F 35.2 °F 24.1 °F 49% 29.51 in 10.0 mi SE 12.7 mph - N/A   Overcast
9:53 PM 39.9 °F 36.7 °F 24.1 °F 53% 29.52 in 10.0 mi NE 4.6 mph - N/A   Overcast
10:53 PM 39.0 °F 32.8 °F 27.0 °F 62% 29.55 in 10.0 mi NNW 9.2 mph - N/A   Overcast
11:20 PM 33.8 °F 23.5 °F 30.2 °F 87% 29.57 in 4.0 mi NNW 16.1 mph 32.2 mph 0.00 in Snow Light Snow
11:25 PM 32.0 °F 19.2 °F 30.2 °F 93% 29.57 in 1.8 mi NNW 23.0 mph 32.2 mph 0.00 in Snow Light Snow
11:36 PM 32.0 °F 19.8 °F 30.2 °F 93% 29.57 in 0.8 mi NNW 20.7 mph 29.9 mph 0.00 in Snow Light Snow
11:44 PM 32.0 °F 19.2 °F 30.2 °F 93% 29.58 in 1.0 mi NW 23.0 mph 33.4 mph 0.00 in Snow Light Snow
11:53 PM 30.9 °F 18.4 °F 28.9 °F 92% 29.62 in 1.5 mi NW 20.7 mph 32.2 mph 0.00 in Snow Light Snow
11:57 PM 30.2 °F 17.4 °F 28.4 °F 93% 29.59 in 3.0 mi NW 20.7 mph 32.2 mph 0.00 in Snow Light Snow